This is the latest recevied weather packets stored in our database for station/object ED1ZAI-14. If no packets are shown the sender has not sent any weather packets the latest 10 day(s).
| Time | Temp. | Humidity | Pressure | Rain* | Wind** | Luminosity | Snow |
|---|---|---|---|---|---|---|---|
| 1778105145 | 2.22° C | 100% | 1034.8 hPa | - | - | - | - |
| 1778103344 | 1.67° C | 100% | 1034.8 hPa | - | - | - | - |
| 1778101544 | 1.67° C | 100% | 1035 hPa | - | - | - | - |
| 1778099744 | 1.11° C | 100% | 1034.9 hPa | - | - | - | - |
| 1778097944 | 1.11° C | 100% | 1034.6 hPa | - | - | - | - |
| 1778096144 | 1.67° C | 100% | 1034.5 hPa | - | - | - | - |
| 1778094344 | 2.22° C | 100% | 1034.4 hPa | - | - | - | - |
| 1778092544 | 2.78° C | 100% | 1034.2 hPa | - | - | - | - |
| 1778090746 | 3.33° C | 100% | 1034 hPa | - | - | - | - |
| 1778088662 | 4.44° C | 100% | 1034 hPa | - | - | - | - |
| 1778086862 | 6.11° C | 100% | 1034 hPa | - | - | - | - |
| 1778085062 | 6.11° C | 100% | 1034.2 hPa | - | - | - | - |
| 1778083262 | 5° C | 100% | 1034.3 hPa | - | - | - | - |
| 1778081461 | 6.67° C | 100% | 1034.2 hPa | - | - | - | - |
| 1778079661 | 5.56° C | 100% | 1034.3 hPa | - | - | - | - |
| 1778077861 | 6.11° C | 100% | 1034.4 hPa | - | - | - | - |
| 1778076061 | 6.11° C | 100% | 1034.5 hPa | - | - | - | - |
| 1778074261 | 7.78° C | 100% | 1034.7 hPa | - | - | - | - |
| 1778072461 | 7.22° C | 100% | 1034.5 hPa | - | - | - | - |
| 1778070664 | 9.44° C | 100% | 1034.6 hPa | - | - | - | - |
| 1778068859 | 7.78° C | 90% | 1034.5 hPa | - | - | - | - |
| 1778067059 | 7.78° C | 99% | 1034.5 hPa | - | - | - | - |
| 1778065261 | 6.11° C | 100% | 1034.6 hPa | - | - | - | - |
| 1777745146 | 4.44° C | 100% | 1037.4 hPa | - | - | - | - |
| 1777743284 | 5° C | 100% | 1037.8 hPa | - | - | - | - |
* Rain since midnight (hover to see other rain measurements)
** Current wind speed in m/s (hover to see current wind gust speed)